Weather observations for the past three days for
Winder, Winder-Barrow Airport
Metric (Imperial)
Date Time (edt) Wind (kph) Vis. (km) Weather Sky Cond. Temperature (ºC) Relative Humidity Wind Chill (°C) Heat Index (°C) Pressure Precipitation (cm)
Air Dwpt 6 hour altimeter (cm) sea level (mb) 1 hr 3 hr 6 hr
Max. Min.
10 16:35 Calm 16.09 Fair CLR 27 8 30% 26 76.25 0.0
10 16:15 Calm 16.09 Fair CLR 27 8 30% 26 76.25 0.0
10 15:55 Calm 16.09 Fair CLR 26 9 34% 26 76.25 0.0
10 15:35 Calm 16.09 Fair CLR 27 11 37% 27 76.28 0.0
10 15:15 Calm 16.09 Fair CLR 26 10 37% 26 76.28 0.0
10 14:55 Calm 16.09 Fair CLR 26 10 37% 26 76.3 0.0
10 14:35 Calm 16.09 Fair CLR 26 10 37% 26 76.3 0.0
10 14:15 Calm 16.09 Fair CLR 26 11 39% 26 76.3 0.0
10 13:55 Calm 16.09 Fair CLR 26 11 39% 26 76.3 0.0
10 13:35 Calm 16.09 Fair CLR 26 12 42% 26 76.3 0.0
10 13:15 Calm 16.09 Fair CLR 25 11 42% 26 76.33 0.0
10 12:55 Calm 16.09 Fair CLR 25 11 42% 26 76.33 0.0
10 12:35 Calm 16.09 Fair CLR 24 11 44% 25 76.35 0.0
10 12:15 Calm 16.09 Fair CLR 24 12 47% 25 76.38 0.0
10 11:55 Calm 16.09 Fair CLR 23 12 50% 76.38 0.0
10 11:35 Calm 16.09 Fair CLR 23 13 53% 76.38 0.0
10 11:15 Calm 16.09 Fair CLR 23 14 57% 76.38 0.0
10 10:55 Calm 16.09 Fair CLR 22 14 61% 76.38 0.0
10 10:35 Calm 16.09 Fair CLR 21 14 64% 76.38 0.0
10 10:15 Calm 16.09 Fair CLR 21 16 73% 76.38 0.0
10 09:55 Calm 16.09 Fair CLR 20 15 73% 76.35 0.0
10 09:35 Calm 16.09 Fair CLR 20 16 78% 76.35 0.0
10 09:15 Calm 16.09 Fair CLR 20 16 78% 76.33 0.0
10 08:55 Calm 16.09 Fair CLR 19 16 83% 76.33 0.0
10 08:35 Calm 16.09 Fair CLR 18 16 88% 76.33 0.0
10 08:15 Calm 16.09 Fair CLR 18 16 88% 76.3 0.0
10 07:55 Calm 16.09 Fair CLR 17 16 94% 76.3 0.0
10 07:35 Calm 16.09 Fair CLR 16 16 100% 76.28 0.0
10 07:15 Calm 16.09 Fair CLR 16 15 94% 76.25 0.0
10 06:55 Calm 16.09 Fair CLR 15 15 100% 76.25 0.0
10 06:35 Calm 16.09 Fair CLR 15 15 100% 76.23 0.0
10 06:15 Calm 16.09 Fair CLR 15 15 100% 76.2 0.0
10 05:55 Calm 16.09 Fair CLR 15 15 100% 76.17 0.0
10 05:35 Calm 16.09 Fair CLR 15 15 100% 76.17 0.0
10 05:15 Calm 16.09 Fair CLR 16 15 94% 76.17 0.0
10 04:55 Calm 16.09 Fair CLR 16 15 94% 76.15 0.0
10 04:35 Calm 16.09 Fair CLR 16 15 94% 76.15 0.0
10 04:15 Calm 16.09 Fair CLR 16 15 94% 76.12 0.0
10 03:55 Calm 16.09 Fair CLR 16 15 94% 76.12 0.0
10 03:35 Calm 16.09 Fair CLR 16 15 94% 76.1 0.0
10 03:15 Calm 16.09 Fair CLR 16 15 94% 76.1 0.0
10 02:55 Calm 16.09 Fair CLR 16 15 94% 76.1 0.0
10 02:35 Calm 16.09 Fair CLR 16 15 94% 76.1 0.0
10 02:15 Calm 16.09 Fair CLR 16 15 94% 76.12 0.0
10 01:55 Calm 16.09 Fair CLR 17 15 88% 76.1 0.0
10 01:35 Calm 16.09 Fair CLR 17 15 88% 76.12 0.0
10 01:15 Calm 16.09 Fair CLR 17 15 88% 76.12 0.0
10 00:55 Calm 16.09 Fair CLR 17 15 88% 76.15 0.0
10 00:35 Calm 16.09 Fair CLR 17 15 88% 76.15 0.0
10 00:15 Calm 16.09 Fair CLR 17 15 88% 76.15 0.0
09 23:55 Calm 16.09 Fair CLR 17 15 88% 76.15 0.0
09 23:35 Calm 16.09 Fair CLR 17 15 88% 76.15 0.0
09 23:15 Calm 16.09 Fair CLR 17 15 88% 76.15 0.0
09 22:55 Calm 16.09 Fair CLR 17 15 88% 76.12 0.0
09 22:35 Calm 16.09 Fair CLR 17 16 94% 76.12 0.0
09 22:15 Calm 16.09 Fair CLR 17 16 94% 76.1 0.0
09 21:55 Calm 16.09 Fair CLR 17 15 88% 76.07 0.0
09 21:35 Calm 16.09 Fair CLR 17 15 88% 76.07 0.0
09 21:15 Calm 16.09 Fair CLR 18 15 83% 76.05 0.0
09 20:55 Calm 16.09 Fair CLR 18 15 83% 76.05 0.0
09 20:35 Calm 16.09 Fair CLR 18 15 83% 76.05 0.0
09 20:15 Calm 16.09 Fair CLR 18 15 83% 76.02 0.0
09 19:55 Calm 16.09 Fair CLR 18 15 83% 76.02 0.0
09 19:35 Calm 16.09 Fair CLR 19 15 78% 76 0.0
09 19:15 Calm 16.09 Fair CLR 19 15 78% 76 0.0
09 18:55 Calm 16.09 Fair CLR 20 15 73% 76 0.0
09 18:35 Calm 16.09 Fair CLR 20 15 73% 75.95 0.0
09 18:15 Calm 16.09 Fair CLR 20 15 73% 75.97 0.0
09 17:55 Calm 16.09 Fair CLR 20 15 73% 75.97 0.0
09 17:35 Calm 16.09 Fair CLR 20 15 73% 75.95 0.0
09 17:15 Calm 16.09 Fair CLR 20 15 73% 75.92 0.0
09 16:55 Calm 16.09 Partly Cloudy SCT025 20 15 73% 75.95 0.0
09 16:35 Calm 16.09 Partly Cloudy SCT025 20 15 73% 75.95 0.0
09 16:15 Calm 16.09 Partly Cloudy SCT024 20 15 73% 75.95 0.0
09 15:55 Calm 16.09 Mostly Cloudy SCT024 BKN030 20 15 73% 75.97 0.0
09 15:35 Calm 16.09 Partly Cloudy SCT022 SCT028 20 15 73% 76 0.0
09 15:15 Calm 16.09 Mostly Cloudy SCT022 BKN028 20 15 73% 76 0.0
09 14:55 Calm 16.09 Mostly Cloudy SCT020 BKN026 20 16 78% 76 0.0
09 14:35 Calm 16.09 Overcast BKN018 OVC026 20 15 73% 76.02 0.0
09 14:15 Calm 16.09 Overcast BKN016 BKN021 OVC026 20 16 78% 76.02 0.0
09 13:55 Calm 16.09 Overcast SCT014 BKN021 OVC026 19 16 83% 76 0.0
09 13:35 Calm 16.09 Overcast SCT014 OVC021 18 15 83% 76.02 0.0
09 13:15 Calm 16.09 Overcast BKN012 OVC019 17 15 88% 76.05 0.0
09 12:55 Calm 16.09 Overcast OVC012 17 15 88% 76.02 0.0
09 12:35 Calm 16.09 Overcast OVC012 17 15 88% 76.05 0.0
09 12:15 Calm 16.09 Overcast OVC012 17 15 88% 76.05 0.0
09 11:55 Calm 16.09 Overcast OVC012 17 15 88% 76.05 0.0
09 11:35 Calm 16.09 Overcast BKN012 BKN016 OVC021 17 15 88% 76.05 0.0
09 11:15 Calm 16.09 Overcast BKN012 OVC021 17 15 88% 76.07 0.0
09 10:55 Calm 16.09 Overcast OVC012 17 15 88% 76.07 0.0
09 10:35 Calm 16.09 Overcast OVC010 17 15 88% 76.07 0.0
09 10:15 Calm 16.09 Overcast OVC010 17 15 88% 76.05 0.0
09 09:55 Calm 16.09 Overcast BKN009 OVC015 17 15 88% 76.02 0.0
09 09:35 Calm 16.09 Mostly Cloudy SCT009 SCT015 BKN100 16 15 94% 76.02 0.0
09 09:15 Calm 16.09 Mostly Cloudy SCT085 BKN100 16 15 94% 76.02 0.0
09 08:55 Calm 16.09 Mostly Cloudy SCT085 BKN110 16 14 88% 76 0.0
09 08:35 Calm 16.09 Mostly Cloudy SCT027 SCT050 BKN100 16 14 88% 76.02 0.0
09 08:15 Calm 16.09 Mostly Cloudy BKN027 BKN050 BKN100 15 13 88% 76.02 0.0
09 07:55 Calm 16.09 Mostly Cloudy BKN027 BKN041 BKN100 15 13 88% 76.02 0.0
09 07:35 Calm 16.09 Mostly Cloudy SCT025 BKN043 BKN100 15 13 88% 76.02 0.0
09 07:15 Calm 16.09 Overcast BKN025 OVC043 15 13 88% 76 0.0
09 06:55 Calm 16.09 Overcast OVC027 15 13 88% 75.97 0.0
09 06:35 Calm 16.09 Overcast BKN029 OVC040 15 13 88% 76 0.0
09 06:15 Calm 16.09 Overcast SCT022 OVC031 15 13 88% 76.05 0.0
09 05:55 Calm 16.09 Overcast BKN022 OVC033 15 13 88% 76.02 0.0
09 05:35 Calm 16.09 Overcast SCT022 OVC033 15 13 88% 76.02 0.0
09 05:15 Calm 16.09 Overcast SCT024 OVC033 14 13 94% 76 0.0
09 04:55 Calm 16.09 Overcast OVC024 14 13 94% 76 0.0
09 04:35 Calm 16.09 Overcast OVC024 14 13 94% 75.97 0.0
09 04:15 Calm 16.09 Mostly Cloudy BKN024 13 13 100% 75.97 0.0
09 03:55 Calm 16.09 Mostly Cloudy BKN024 14 13 94% 75.95 0.0
09 03:35 Calm 16.09 Mostly Cloudy BKN024 14 13 94% 75.95 0.0
09 03:15 Calm 16.09 Overcast OVC024 15 13 88% 76 0.0
09 02:55 Calm 16.09 Overcast OVC028 15 13 88% 76.02 0.0
09 02:35 Calm 16.09 Overcast BKN028 OVC060 15 13 88% 76.05 0.0
09 02:15 Calm 16.09 Overcast BKN060 OVC110 14 13 94% 76.07 0.0
09 01:55 Calm 16.09 Overcast SCT060 SCT085 OVC110 14 13 94% 76.07 0.0
09 01:35 Calm 16.09 Overcast SCT085 OVC110 14 13 94% 76.1 0.0
09 01:15 Calm 16.09 Mostly Cloudy SCT085 BKN120 14 13 94% 76.1 0.0
09 00:55 Calm 16.09 Partly Cloudy SCT080 SCT120 14 13 94% 76.1 0.0
09 00:35 Calm 16.09 Partly Cloudy SCT080 14 13 94% 76.12 0.0
09 00:15 Calm 16.09 Partly Cloudy SCT080 15 13 88% 76.12 0.0
08 23:55 Calm 16.09 Partly Cloudy SCT120 15 13 88% 76.15 0.0
08 23:35 Calm 16.09 Partly Cloudy SCT120 15 13 88% 76.17 0.0
08 23:15 Calm 16.09 Fair CLR 15 13 88% 76.17 0.0
08 22:55 Calm 16.09 Fair CLR 16 13 83% 76.2 0.0
08 22:35 Calm 16.09 Fair CLR 16 13 83% 76.2 0.0
08 22:15 Calm 16.09 Fair CLR 16 12 77% 76.17 0.0
08 21:55 Calm 16.09 Fair CLR 16 12 77% 76.17 0.0
08 21:35 Calm 16.09 Fair CLR 16 12 77% 76.17 0.0
08 21:15 Calm 16.09 Fair CLR 17 12 73% 76.17 0.0
08 20:55 Calm 16.09 Fair CLR 17 12 73% 76.15 0.0
08 20:35 Calm 16.09 Fair CLR 17 13 77% 76.12 0.0
08 20:15 Calm 16.09 Fair CLR 18 12 68% 76.15 0.0
08 19:55 Calm 16.09 Fair CLR 18 13 73% 76.12 0.0
08 19:35 Calm 16.09 Fair CLR 18 12 68% 76.15 0.0
08 18:55 Calm 16.09 Fair CLR 19 12 64% 76.12 0.0
08 18:35 Calm 16.09 Fair CLR 20 12 60% 76.12 0.0
08 18:15 Calm 16.09 Fair CLR 20 11 56% 76.12 0.0
08 17:55 Calm 16.09 Fair CLR 20 11 56% 76.12 0.0
08 17:35 Calm 16.09 Fair CLR 20 11 56% 76.12 0.0
08 17:15 Calm 16.09 Fair CLR 20 11 56% 76.12 0.0
08 16:55 Calm 16.09 Fair CLR 20 11 56% 76.12 0.0
08 16:35 Calm 16.09 Fair CLR 20 10 53% 76.15 0.0
08 16:15 Calm 16.09 Fair CLR 20 10 53% 76.15 0.0
08 15:35 Calm 16.09 Fair CLR 20 10 53% 76.2 0.0
08 15:15 Calm 16.09 Fair CLR 20 10 53% 76.2 0.0
08 14:55 Calm 16.09 Partly Cloudy SCT043 21 11 53% 76.23 0.0
08 14:35 Calm 16.09 Partly Cloudy SCT043 21 11 53% 76.25 0.0
08 14:15 Calm 16.09 Fair CLR 20 10 53% 76.25 0.0
08 13:35 Calm 16.09 Fair CLR 20 9 49% 76.3 0.0
08 13:15 Calm 16.09 Fair CLR 19 10 56% 76.33 0.0
08 12:55 Calm 16.09 Partly Cloudy SCT037 18 10 60% 76.35 0.0
08 12:35 Calm 16.09 Partly Cloudy SCT035 18 10 60% 76.38 0.0
08 12:15 Calm 16.09 Fair CLR 19 11 60% 76.38 0.0
08 11:55 Calm 16.09 Partly Cloudy SCT028 18 11 64% 76.43 0.0
08 11:35 Calm 16.09 Partly Cloudy SCT028 17 11 68% 76.43 0.0
08 11:15 Calm 16.09 Fair CLR 17 11 68% 76.43 0.0
08 10:55 Calm 16.09 Fair CLR 17 11 68% 76.43 0.0
08 10:35 Calm 16.09 Fair CLR 16 11 72% 76.43 0.0
08 10:15 Calm 16.09 Fair CLR 15 11 77% 76.43 0.0
08 09:35 Calm 16.09 Fair CLR 13 10 82% 76.45 0.0
08 09:15 Calm 16.09 Fair CLR 13 11 88% 76.43 0.0
08 08:55 Calm 16.09 Fair CLR 12 10 88% 76.43 0.0
08 08:35 Calm 16.09 Fair CLR 12 10 88% 76.43 0.0
08 08:15 Calm 16.09 Fair CLR 12 10 88% 76.4 0.0
08 07:55 Calm 16.09 Fair CLR 11 10 94% 76.38 0.0
08 07:35 Calm 16.09 Fair CLR 11 10 94% 76.33 0.0
08 07:15 Calm 16.09 Fair CLR 10 9 94% 76.3 0.0
08 06:55 Calm 16.09 Fair CLR 10 9 94% 76.28 0.0
08 06:35 Calm 16.09 Fair CLR 10 9 94% 76.25 0.0
08 06:15 Calm 16.09 Fair CLR 10 10 100% 76.23 0.0
08 05:55 Calm 16.09 Fair CLR 10 9 94% 76.23 0.0
08 05:35 Calm 16.09 Fair CLR 11 10 94% 76.23 0.0
08 05:15 Calm 16.09 Fair CLR 11 10 94% 76.2 0.0
08 04:55 Calm 16.09 Fair CLR 11 10 94% 76.17 0.0
08 04:35 Calm 16.09 Fair CLR 11 10 94% 76.17 0.0
08 04:15 Calm 16.09 Fair CLR 12 10 88% 76.15 0.0
08 03:55 Calm 16.09 Fair CLR 12 10 88% 76.17 0.0
08 03:35 Calm 16.09 Fair CLR 12 11 94% 76.17 0.0
08 03:15 Calm 16.09 Fair CLR 12 11 94% 76.17 0.0
08 02:55 Calm 16.09 Fair CLR 12 11 94% 76.17 0.0
08 02:35 Calm 16.09 Fair CLR 12 11 94% 76.17 0.0
08 02:15 Calm 16.09 Fair CLR 12 11 94% 76.17 0.0
08 01:55 Calm 16.09 Fair CLR 12 11 94% 76.17 0.0
08 01:35 Calm 16.09 Fair CLR 12 11 94% 76.2 0.0
08 01:15 Calm 16.09 Fair CLR 12 11 94% 76.2 0.0
08 00:55 Calm 16.09 Fair CLR 12 11 94% 76.2 0.0
08 00:35 Calm 16.09 Fair CLR 13 11 88% 76.17 0.0
08 00:15 Calm 16.09 Fair CLR 13 12 94% 76.17 0.0
07 23:55 Calm 16.09 Fair CLR 13 11 88% 76.17 0.0
07 23:35 Calm 16.09 Fair CLR 13 11 88% 76.17 0.0
07 23:15 Calm 16.09 Fair CLR 14 11 82% 76.17 0.0
07 22:55 Calm 16.09 Fair CLR 15 11 77% 76.17 0.0
07 22:35 Calm 16.09 Fair CLR 15 11 77% 76.15 0.0
07 22:15 Calm 16.09 Fair CLR 15 11 77% 76.15 0.0
07 21:55 Calm 16.09 Fair CLR 15 11 77% 76.12 0.0
07 21:35 Calm 16.09 Fair CLR 16 11 72% 76.12 0.0
07 21:15 Calm 16.09 Fair CLR 16 11 72% 76.1 0.0
07 20:55 Calm 16.09 Fair CLR 17 11 68% 76.1 0.0
07 20:35 Calm 16.09 Fair CLR 17 11 68% 76.07 0.0
07 20:15 Calm 16.09 Fair CLR 17 11 68% 76.05 0.0
07 19:55 Calm 16.09 Fair CLR 18 12 68% 76.05 0.0
07 19:35 Calm 16.09 Partly Cloudy SCT034 18 12 68% 76.02 0.0
07 19:15 Calm 16.09 Partly Cloudy SCT032 19 12 64% 76 0.0
07 18:55 Calm 16.09 Mostly Cloudy BKN032 20 13 64% 76 0.0
07 18:35 Calm 16.09 Mostly Cloudy BKN032 20 13 64% 75.97 0.0
07 18:15 Calm 16.09 Mostly Cloudy BKN030 20 13 64% 75.95 0.0
07 17:55 Calm 16.09 Mostly Cloudy BKN030 21 14 64% 75.92 0.0
07 17:35 Calm 16.09 Mostly Cloudy BKN030 BKN036 22 15 65% 75.95 0.0
07 17:15 Calm 16.09 Overcast BKN032 OVC038 22 15 65% 75.9 0.0
07 16:55 Calm 16.09 Mostly Cloudy BKN034 BKN041 22 15 65% 75.92 0.0
Date Time (edt) Wind (kph) Vis. (km) Weather Sky Cond. Air Dwpt Max. Min. Relative Humidity Wind Chill (°C) Heat Index (°C) altimeter (cm) sea level (mb) 1 hr 3 hr 6 hr
6 hour
Temperature (ºC) Pressure Precipitation (cm)